Raton, NM

5:54 PM MDT on August 20, 2017 (GMT -0600)
Raton Municipal-Crews

Weather History for KRTN - July, 2013

Change the Weather History Date:

Tuesday, July 16, 2013

  Actual Average (KTAD) Record (KTAD)
Temperature  
Mean Temperature 62 °F -  
Max Temperature 73 °F 90 °F 99 °F (1982)
Min Temperature 54 °F 59 °F 51 °F (2014)
Degree Days  
Heating Degree Days 2    
Growing Degree Days 12 (Base 50)    
Moisture  
Dew Point 52 °F    
Average Humidity 78    
Maximum Humidity 94    
Minimum Humidity 44    
Precipitation  
Precipitation 0.00 in - - ()
Sea Level Pressure  
Sea Level Pressure 30.18 in    
Wind  
Wind Speed 5 mph (SW)    
Max Wind Speed 12 mph    
Max Gust Speed 16 mph    
Visibility 8 miles    
Events      
Averages and records for this station are not official NWS values.
T = Trace of Precipitation, MM = Missing Value Source: NWS Daily Summary

Daily Weather History Graph

Daily Weather History Graph

Search for Another Location

Airport or City:

Trip Planner

Search our weather history database for the weather conditions in past years. The results will help you decide how hot, cold, wet, or windy it might be!

Date:

Astronomy

Jul. 16, 2013 Rise Set
Actual Time 5:51 AM MDT 8:16 PM MDT
Civil Twilight 5:22 AM MDT 8:45 PM MDT
Nautical Twilight 4:45 AM MDT 9:22 PM MDT
Astronomical Twilight 4:04 AM MDT 10:02 PM MDT
Moon 2:03 PM MDT (7/16) 12:18 AM MDT (7/16)
Length of Visible Light 15h 23m
Length of Day
14h 24m
First Quarter, 57% of the Moon is Illuminated
Jul 16
First Quarter
Jul 22
Full
Jul 29
Last Quarter
Aug 6
New
Aug 14
First Quarter

Hourly Weather History & Observations

Time (MDT) Temp. Dew Point Humidity Pressure Visibility Wind Dir Wind Speed Gust Speed Precip Events Conditions
12:53 AM 57.0 °F 53.1 °F 87% 30.10 in 10.0 mi North 4.6 mph - N/A   Overcast
1:08 AM 57.2 °F 53.6 °F 88% 30.30 in 10.0 mi NNW 6.9 mph - N/A   Overcast
1:22 AM 57.2 °F 53.6 °F 88% 30.30 in 9.0 mi WSW 4.6 mph - N/A   Overcast
1:45 AM 57.2 °F 53.6 °F 88% 30.30 in 9.0 mi West 5.8 mph - N/A   Overcast
1:53 AM 57.0 °F 53.1 °F 87% 30.08 in 9.0 mi West 5.8 mph - N/A   Overcast
2:53 AM 57.0 °F 53.1 °F 87% 30.06 in 8.0 mi WSW 5.8 mph - N/A   Overcast
3:53 AM 55.0 °F 52.0 °F 89% 30.06 in 8.0 mi WSW 5.8 mph - N/A   Scattered Clouds
4:26 AM 55.4 °F 53.6 °F 94% 30.26 in 7.0 mi WSW 6.9 mph - N/A   Overcast
4:53 AM 55.9 °F 53.1 °F 90% 30.06 in 7.0 mi West 3.5 mph - N/A   Overcast
5:25 AM 55.4 °F 53.6 °F 94% 30.28 in 7.0 mi Calm Calm - N/A   Overcast
5:35 AM 55.4 °F 53.6 °F 94% 30.28 in 8.0 mi SSW 3.5 mph - N/A   Overcast
5:53 AM 54.0 °F 52.0 °F 93% 30.07 in 6.0 mi WSW 6.9 mph - N/A   Partly Cloudy
6:29 AM 55.4 °F 53.6 °F 94% 30.29 in 5.0 mi SW 3.5 mph - N/A   Mostly Cloudy
6:53 AM 55.9 °F 53.1 °F 90% 30.09 in 5.0 mi SSW 3.5 mph - N/A   Overcast
7:00 AM 55.4 °F 53.6 °F 94% 30.31 in 5.0 mi SSW 4.6 mph - N/A   Overcast
7:17 AM 55.4 °F 53.6 °F 94% 30.31 in 5.0 mi SSW 4.6 mph - N/A   Overcast
7:30 AM 55.4 °F 53.6 °F 94% 30.31 in 6.0 mi SW 4.6 mph - N/A   Scattered Clouds
7:53 AM 57.0 °F 53.1 °F 87% 30.11 in 7.0 mi SSW 4.6 mph - N/A   Clear
8:11 AM 57.2 °F 53.6 °F 88% 30.31 in 7.0 mi Variable 3.5 mph - N/A   Mostly Cloudy
8:53 AM 60.1 °F 53.1 °F 78% 30.12 in 8.0 mi SSW 3.5 mph - N/A   Partly Cloudy
9:53 AM 61.0 °F 53.1 °F 75% 30.12 in 10.0 mi SW 8.1 mph - N/A   Mostly Cloudy
10:53 AM - - N/A% 30.33 in - Calm Calm - N/A   Unknown
11:40 AM 64.4 °F 51.8 °F 64% 30.33 in 10.0 mi Variable 4.6 mph - N/A   Overcast
11:53 AM 64.9 °F 51.1 °F 61% 30.11 in 10.0 mi Calm Calm - N/A   Overcast
12:53 PM 66.0 °F 51.1 °F 59% 30.10 in 10.0 mi Variable 4.6 mph - N/A   Overcast
1:53 PM 66.9 °F 48.9 °F 52% 30.09 in 10.0 mi Variable 3.5 mph - N/A   Overcast
2:53 PM 71.1 °F 48.9 °F 45% 30.07 in 10.0 mi South 10.4 mph - N/A   Scattered Clouds
3:53 PM 69.1 °F 50.0 °F 51% 30.09 in 10.0 mi Variable 3.5 mph - N/A   Mostly Cloudy
4:53 PM 71.1 °F 48.0 °F 44% 30.07 in 10.0 mi Variable 5.8 mph - N/A   Partly Cloudy
5:53 PM 70.0 °F 50.0 °F 49% 30.08 in 10.0 mi South 11.5 mph 16.1 mph N/A   Mostly Cloudy
6:53 PM 66.9 °F 52.0 °F 59% 30.09 in 10.0 mi South 9.2 mph - 0.00 in   Overcast
7:53 PM 66.9 °F 52.0 °F 59% 30.11 in 10.0 mi SSW 10.4 mph - N/A   Overcast
8:53 PM 64.9 °F 52.0 °F 63% 30.13 in 10.0 mi South 10.4 mph - N/A   Overcast
9:53 PM 61.0 °F 54.0 °F 78% 30.18 in 10.0 mi South 9.2 mph - N/A   Overcast
10:53 PM 60.1 °F 54.0 °F 80% 30.41 in 10.0 mi South 5.8 mph - N/A   Overcast
11:53 PM 59.0 °F 54.0 °F 83% 30.21 in 10.0 mi SSW 4.6 mph - N/A   Scattered Clouds